User: anonymous   Login
Location: Smithers
(54.7670°N, 127.1670°W)
Time: 12:48:50
(UTC-07:00)
Language:

ERBS - Orbit

View from above orbital plane
View from above orbital plane
View from above satellite
View from above satellite

Ground track
Ground track

The orbit data is extracted from the following two-line orbital elements,

1 15354U 84108B   15154.35428097  .00005041  00000-0  15284-3 0  9996
2 15354 057.0117 089.0340 0018125 120.3145 239.9702 15.35761728683439
Epoch (UTC): 03 June 2015 08:30:09
Eccentricity: 0.0018125
inclination: 57.0117°
perigee height: 446 km
apogee height: 471 km
right ascension of ascending node: 89.0340°
argument of perigee: 120.3145°
revolutions per day: 15.35761728
mean anomaly at epoch: 239.9702°
orbit number at epoch: 68343

The dashed part of the orbit path shows where the satellite is in the earth's shadow,  

DLR